FW1302 Weather Reports


Display with metric or nautical units.
time (UTC)temp
F
wind
direction
speed
MPH
gust
MPH
rain 1hr
in
rain 24hr
in
rain mn
in
humidity
%
barometer
mb
20260504194128 65 225 17.0 24.0 0.00 0.00 0.00 66 1021.7
20260504193130 64 226 16.0 23.0 0.00 0.00 0.00 67 1021.7
20260504192229 64 227 13.0 22.0 0.00 0.00 0.00 66 1021.9
20260504191231 64 218 17.0 24.0 0.00 0.00 0.00 68 1021.9
20260504190228 64 226 21.0 28.0 0.00 0.00 0.00 68 1022.1
20260504185230 63 226 17.0 27.0 0.00 0.00 0.00 68 1021.9
20260504184129 63 225 17.0 21.0 0.00 0.00 0.00 68 1022.2
20260504183130 63 223 19.0 26.0 0.00 0.00 0.00 68 1022.2
20260504181230 63 225 12.0 18.0 0.00 0.00 0.00 68 1022.2
20260504175232 62 222 13.0 21.0 0.00 0.00 0.00 68 1022.4
20260504174328 62 222 17.0 24.0 0.00 0.00 0.00 68 1022.5
20260504172430 62 221 12.0 16.0 0.00 0.00 0.00 70 1022.6
20260504170428 62 207 13.0 18.0 0.00 0.00 0.00 70 1022.6
20260504150531 61 221 11.0 16.0 0.00 0.00 0.00 69 1022.4
20260504081730 58 22 0.0 1.0 0.00 0.00 0.00 74 1019.2
20260504080728 59 22 0.0 0.0 0.00 0.00 0.00 72 1019.3
20260504045910 65 22 0.0 0.0 0.00 0.00 0.00 60 1018.3
20260504045008 67 22 0.0 0.0 0.00 0.00 0.00 57 1018.1
20260504044008 69 22 0.0 0.0 0.00 0.00 0.00 52 1018.1
20260504043009 70 22 0.0 0.0 0.00 0.00 0.00 49 1017.9
20260504042009 70 360 3.0 5.0 0.00 0.00 0.00 49 1017.8
20260504041107 69 360 0.0 4.0 0.00 0.00 0.00 52 1017.7
20260504035109 71 315 0.0 0.0 0.00 0.00 0.00 49 1017.4
20260504034109 71 180 0.0 0.0 0.00 0.00 0.00 53 1017.3
20260504032211 71 180 0.0 0.0 0.00 0.00 0.00 51 1016.9
20260504031208 73 180 0.0 0.0 0.00 0.00 0.00 49 1016.9
20260504030207 75 180 0.0 0.0 0.00 0.00 0.00 45 1016.7
20260504030109 75 180 0.0 0.0 0.00 0.00 0.00 45 1016.7
20260504025108 75 180 0.0 0.0 0.00 0.00 0.00 43 1016.7
20260504025010 75 180 0.0 0.0 0.00 0.00 0.00 43 1016.6
20260504024108 76 180 0.0 0.0 0.00 0.00 0.00 40 1016.5
20260504023109 79 225 0.0 0.0 0.00 0.00 0.00 37 1016.5
20260504022207 79 225 1.0 1.0 0.00 0.00 0.00 37 1016.3
20260504021207 77 225 1.0 2.0 0.00 0.00 0.00 38 1016.4
20260504020210 77 247 2.0 3.0 0.00 0.00 0.00 38 1016.3
20260504015309 80 45 0.0 0.0 0.00 0.00 0.00 35 1016.3
20260504014307 83 45 0.0 0.0 0.00 0.00 0.00 32 1016.4
20260504013309 81 38 2.0 5.0 0.00 0.00 0.00 34 1016.4
20260504010307 83 45 7.0 10.0 0.00 0.00 0.00 28 1016.7
20260504005309 83 45 6.0 8.0 0.00 0.00 0.00 29 1016.8
20260504004407 81 45 5.0 6.0 0.00 0.00 0.00 31 1016.9
20260504003408 81 45 6.0 8.0 0.00 0.00 0.00 29 1017.1
20260504002407 83 45 6.0 9.0 0.00 0.00 0.00 28 1017.1
20260504001408 80 45 6.0 8.0 0.00 0.00 0.00 32 1017.2
20260504000408 77 45 7.0 9.0 0.00 0.00 0.00 36 1017.3
20260504000308 77 45 7.0 10.0 0.00 0.00 0.00 37 1017.3
20260503235309 76 45 7.0 9.0 0.00 0.00 0.00 38 1017.3
20260503234408 76 45 9.0 11.0 0.00 0.00 0.00 38 1017.4
20260503233408 75 45 10.0 11.0 0.00 0.00 0.00 40 1017.5
20260503233308 75 45 9.0 11.0 0.00 0.00 0.00 39 1017.5
20260503232407 73 45 8.0 10.0 0.00 0.00 0.00 41 1017.7
20260503231409 79 45 9.0 10.0 0.00 0.00 0.00 32 1017.8
20260503230408 76 49 7.0 10.0 0.00 0.00 0.00 38 1017.8
20260503225409 77 45 9.0 12.0 0.00 0.00 0.00 37 1018.0
20260503224407 74 45 10.0 12.0 0.00 0.00 0.00 41 1018.2
20260503224309 74 45 11.0 14.0 0.00 0.00 0.00 40 1018.2
20260503223407 75 45 11.0 13.0 0.00 0.00 0.00 40 1018.5
20260503222409 74 45 10.0 12.0 0.00 0.00 0.00 42 1018.5
20260503221508 73 45 11.0 14.0 0.00 0.00 0.00 44 1018.8
20260503220508 73 45 11.0 14.0 0.00 0.00 0.00 45 1018.8
20260503214509 72 45 11.0 15.0 0.00 0.00 0.00 46 1019.1
20260503213509 72 45 10.0 13.0 0.00 0.00 0.00 47 1019.3
20260503212509 73 45 11.0 14.0 0.00 0.00 0.00 45 1019.4
20260503211507 69 45 10.0 14.0 0.00 0.00 0.00 54 1019.6
20260503205608 67 45 13.0 17.0 0.00 0.00 0.00 57 1019.9
20260503203707 68 45 12.0 14.0 0.00 0.00 0.00 54 1020.1
20260503202708 69 45 14.0 15.0 0.00 0.00 0.00 52 1020.2
20260503195709 69 45 13.0 16.0 0.00 0.00 0.00 49 1020.6